Regional Weather Roundup
Issued by NWS

Home | Current Version | Previous Version | Graphics & Text | Print | Product List | Glossary On
Versions: 1 2 3 4 5 6 7 8 9 10 11 12 13 14 15 16 17 18 19 20 21 22 23 24 25 26 27 28 29 30 31 32 33 34 35 36 37 38 39 40 41 42 43 44 45 46 47 48 49 50
000
ASUS45 KSLC 210810
RWRUT

UTAH REGIONAL WEATHER ROUNDUP
NATIONAL WEATHER SERVICE SALT LAKE CITY UT
200 AM MDT THU AUG 21 2014

UTZ001>011-023>025-210900-

NORTHERN UTAH

CITY           SKY/WX    TMP DP  RH WIND       PRES   REMARKS
HILL AFB       CLOUDY    61  52  70 E18G26    30.03F
LOGAN          CLOUDY    61  53  75 S10       30.02S
OGDEN          CLOUDY    63  52  67 S3        30.01F
PROVO AIRPORT  MOCLDY    63  54  72 S9        30.06F
SALT LAKE CITY CLOUDY    66  53  63 S13       30.00S
VERNAL         CLOUDY    61  51  70 CALM      30.11F
WENDOVER       CLOUDY    72  46  40 NE3       29.98R
HEBER CITY     CLOUDY    55  52  88 S3        30.14S
WEST JORDAN    PTCLDY    64  57  77 SW8       30.04F

$$

UTZ012>022-026-027-210900-

SOUTHERN UTAH

CITY           SKY/WX    TMP DP  RH WIND       PRES   REMARKS
BRYCE CANYON   MOCLDY    43  41  93 N3        30.28S
CEDAR CITY     CLEAR     60  44  55 SE7       30.14S
MILFORD        CLEAR     64  47  53 S14       30.08S
MOAB/CYNLANDS  CLEAR     63  54  72 CALM      30.06S
PRICE          CLEAR     57  48  72 N7        30.14S
ST GEORGE      CLOUDY    72  52  49 E7        30.00F
KANAB            N/A     57  48  72 NE6       30.16F

$$

REGIONAL REPORTS     COLORADO/ARIZONA

CITY           SKY/WX    TMP DP  RH WIND       PRES   REMARKS
CRAIG, CO      MOCLDY    55  51  86 VRB3      30.17S
GRAND JUNCTION PTCLDY    58  52  80 CALM      30.10R
RIFLE          CLOUDY    61  49  64 E8        30.14R
MONTROSE       CLEAR     60  49  66 CALM      30.18R
CORTEZ         CLEAR     52  46  80 E3        30.18S
PAGE, AZ       PTCLDY    70  48  45 S5        30.08S
GRAND CANYON     N/A    N/A N/A N/A MISG        N/A
KINGMAN        CLOUDY    74  51  44 SW8       30.03R
FLAGSTAFF      MOCLDY    50  46  86 CALM      30.27F

$$

REGIONAL REPORTS    NEVADA/IDAHO/WYOMING

CITY           SKY/WX    TMP DP  RH WIND       PRES   REMARKS
LAS VEGAS, NV  PTCLDY    80  45  28 S8        29.88S
ELY            CLEAR     62  41  46 S9        30.13S
ELKO           CLOUDY    70  40  33 W7        29.97R
POCATELLO, ID  LGT RAIN  59  56  89 E5        30.03F
BURLEY         LGT RAIN  59  56  89 CALM      30.02R
EVANSTON, WY   LGT RAIN  50  49  96 E8        30.21F
ROCK SPRINGS   CLOUDY    50  45  83 W8        30.20F

$$


USA.gov is the U.S. government's official web portal to all federal, state and local government web resources and services.